Home   Weather   Milan   Past weeks

Flag for Italy Past Weather in Milan, Italy — Yesterday and Last 2 Weeks

Now
72 °F

Passing clouds.


Feels Like: 75 °F
Forecast: 70 / 82 °F
Wind: 5 mph from Southwest

Location: Milan / Linate

Current Time: Jul 23, 2017 at 5:00:46 am

Latest Report: Jul 23, 2017 at 4:20 am


Visibility: N/A

Pressure: 29.95 "Hg

Humidity: 69%

Dew Point: 61 °F

Location of MilanLocation

Past Weather in Milan — Graph

°F

Milan Temperature Yesterday

Maximum temperature yesterday: 90 °F (at 5:20 pm)
Minimum temperature yesterday: 68 °F (at 5:20 am)
Average temperature yesterday: 79 °F

High & Low Weather Summary for the Past Weeks

 TemperatureHumidityPressure
High93 °F (Jul 8, 4:20 pm)94% (Jul 10, 11:20 pm)30.21 "Hg (Jul 10, 11:20 pm)
Low66 °F (Jul 18, 5:20 am)23% (Jul 15, 1:20 pm)29.80 "Hg (Jul 10, 4:20 pm)
Average78 °F54%29.96 "Hg
* Reported Jul 8 2:20 am — Jul 23 2:50 am, Milan. Weather by CustomWeather, © 2017

Note: Actual official high and low records may vary slightly from our data, if they occured in-between our weather recording intervals... More about our weather records

Advertising

Milan Weather History for the Previous 24 Hours

Scroll right to see more
 ConditionsComfort  
Time TempWeatherWind HumidityBarometerVisibility
2:50 am
Sun, Jul 23
77 °FPassing clouds.1 mph54%29.95 "HgN/A
2:20 am77 °FPassing clouds.2 mph54%29.95 "HgN/A
1:50 am79 °FPassing clouds.5 mph51%29.95 "HgN/A
1:20 am79 °FPassing clouds.3 mph51%29.95 "HgN/A
12:50 am79 °FPassing clouds.5 mph54%29.95 "HgN/A
12:20 am79 °FPassing clouds.5 mph54%29.95 "HgN/A
11:50 pm
Sat, Jul 22
79 °FPassing clouds.6 mph54%29.95 "HgN/A
11:20 pm79 °FClear.2 mph54%29.95 "Hg10 mi
10:50 pm75 °FClear.1 mph65%29.95 "Hg10 mi
10:20 pm77 °FClear.2 mph61%29.95 "Hg10 mi
9:50 pm79 °FClear.No wind51%29.92 "Hg10 mi
9:20 pm81 °FClear.No wind45%29.92 "Hg10 mi
8:50 pm82 °FPassing clouds.3 mph37%29.92 "HgN/A
8:20 pm84 °FSunny.5 mph33%29.92 "Hg10 mi
7:50 pm86 °FSunny.5 mph31%29.89 "Hg10 mi
7:20 pm88 °FSunny.6 mph31%29.89 "Hg10 mi
6:50 pm88 °FPassing clouds.3 mph33%29.89 "HgN/A
6:20 pm88 °FPassing clouds.6 mph33%29.89 "HgN/A
5:50 pm90 °FPassing clouds.6 mph29%29.92 "HgN/A
5:20 pm90 °FPassing clouds.6 mph31%29.92 "HgN/A
4:50 pm88 °FPassing clouds.7 mph35%29.92 "HgN/A
4:20 pm88 °FPassing clouds.6 mph35%29.92 "HgN/A
3:50 pm88 °FScattered clouds.6 mph40%29.92 "HgN/A
3:20 pm86 °FScattered clouds.8 mph43%29.92 "HgN/A
2:50 pm86 °FScattered clouds.8 mph43%29.92 "HgN/A
2:20 pm86 °FScattered clouds.6 mph46%29.92 "HgN/A
1:50 pm86 °FScattered clouds.7 mph46%29.92 "HgN/A
1:20 pm84 °FPassing clouds.2 mph45%29.95 "HgN/A
12:50 pm84 °FPassing clouds.6 mph45%29.95 "HgN/A
12:20 pm84 °FPassing clouds.5 mph45%29.95 "HgN/A
11:50 am84 °FSunny.1 mph45%29.95 "Hg10 mi
11:20 am82 °FPassing clouds.5 mph48%29.95 "HgN/A
10:50 am81 °FSunny.2 mph51%29.95 "Hg10 mi
10:20 am81 °FPassing clouds.3 mph51%29.95 "HgN/A
9:50 am79 °FPassing clouds.2 mph54%29.95 "HgN/A
9:20 am77 °FPassing clouds.3 mph57%29.95 "HgN/A
8:50 am75 °FScattered clouds.2 mph65%29.95 "HgN/A
8:20 am73 °FScattered clouds.1 mph74%29.95 "HgN/A
7:20 am72 °FScattered clouds.2 mph78%29.92 "HgN/A
5:50 am68 °FPassing clouds.2 mph88%29.92 "HgN/A
5:20 am68 °FPassing clouds.2 mph88%29.89 "HgN/A
Weather by CustomWeather, © 2017

See weather overviewHow to use our weather pages